Wind_Speed
15 15 15 14 14 14 14 15 15 15 16 17 17 18 18 18 18 18 17 17 17 16 16 16 16 15 16 17 17 17 17 17 18 18 18 18 18 18 18 17 17 17 17 17 17 17 17 17 17 17 18 18
14 16 16 15 15 15 15 15 16 17 18 19 19 19 19 19 19 18 17 16 16 16 16 16 16 16 16 17 17 18 18 18 18 18 18 17 17 17 17 17 17 16 16 16 16 16 16 16 16 16 17 17
15 17 16 16 16 16 16 16 17 17 18 19 20 21 20 20 20 19 18 17 16 16 17 17 17 17 17 17 17 18 18 17 18 17 17 16 16 15 14 14 13 13 13 13 13 12 12 12 13 13 13 14
16 17 17 17 17 17 17 17 17 18 19 20 21 22 21 21 21 20 19 18 17 17 17 17 18 18 17 17 17 18 18 17 17 16 15 14 12 11 10 9 8 8 8 8 8 8 8 8 8 9 9 9
16 18 18 19 18 18 18 18 19 19 20 21 22 23 22 22 21 21 20 19 18 18 17 17 18 17 17 17 17 17 17 15 14 12 11 10 8 7 7 6 5 5 5 6 6 6 7 7 7 7 8 8
17 18 20 20 20 20 20 20 20 20 21 22 23 24 22 22 21 21 20 19 19 19 18 18 18 17 17 16 16 15 14 13 11 10 9 8 7 7 6 6 6 6 6 7 7 8 8 8 9 9 9 10
19 20 21 21 21 22 22 21 21 22 22 23 24 24 22 21 21 21 20 20 19 19 18 18 18 17 16 15 14 13 12 11 10 9 9 8 8 8 8 8 8 8 9 9 10 10 10 11 11 11 11 12
21 21 22 22 22 23 23 22 22 23 23 24 24 23 22 22 21 21 20 20 20 19 19 18 18 17 15 14 13 12 12 12 11 10 10 10 10 10 10 10 11 11 11 11 12 12 13 13 13 13 14 14
23 23 23 23 24 24 23 23 23 24 24 25 25 24 23 22 22 21 21 20 20 19 19 18 18 16 15 14 13 13 13 13 12 12 12 12 12 12 12 13 13 13 13 13 14 14 14 14 15 15 15 16
25 25 24 25 25 25 24 24 25 25 25 25 25 25 24 23 23 22 21 21 20 19 19 18 17 16 16 15 15 15 14 14 14 14 14 14 14 14 14 14 15 15 15 15 15 15 16 16 16 16 17 17
26 26 25 25 26 26 25 26 26 25 25 25 26 25 25 24 23 23 22 21 20 20 19 18 18 17 17 17 17 16 16 16 15 15 16 16 16 16 16 16 16 16 16 17 17 17 17 17 17 17 17 17
28 27 27 27 26 26 26 26 26 26 26 26 26 26 25 25 24 23 22 21 20 20 19 19 19 19 18 18 18 18 17 17 17 17 17 17 17 17 18 18 18 18 18 18 18 17 17 17 17 17 17 18
29 29 28 27 27 27 27 26 26 27 27 27 27 26 26 26 25 24 22 21 20 20 20 20 20 20 19 19 19 19 19 18 18 18 18 18 18 19 19 19 19 19 19 18 18 18 18 18 18 18 18 18
30 29 29 28 28 28 27 27 27 28 28 28 28 27 27 26 25 24 23 22 21 21 21 21 21 21 20 20 20 20 20 19 19 19 19 19 19 19 19 19 19 19 19 18 18 18 18 18 18 18 18 18
30 30 29 28 28 28 28 28 29 29 29 29 28 28 27 27 26 24 23 22 22 22 21 21 22 21 21 21 21 21 20 20 20 20 20 20 20 20 20 20 19 19 19 18 18 18 19 19 19 19 19 19
31 30 29 29 29 29 29 29 30 30 29 29 29 28 28 27 26 25 23 23 22 22 22 22 22 22 22 22 22 22 21 21 21 21 21 21 20 20 20 20 19 19 19 18 19 19 19 19 19 19 19 20
32 31 30 31 31 31 31 31 31 30 30 30 29 29 28 27 27 25 24 24 23 23 23 23 23 23 23 23 23 23 22 22 22 22 21 21 20 20 20 20 19 19 19 19 19 19 19 19 20 20 20 20
33 32 32 32 32 32 32 32 32 31 31 31 31 30 29 28 27 26 25 25 25 24 24 24 24 24 25 25 24 23 23 23 23 22 22 21 21 20 20 20 20 19 20 20 20 20 20 20 20 21 21 21
33 33 34 34 33 33 33 33 33 33 33 33 32 32 30 29 28 27 26 26 25 25 25 25 25 25 26 26 25 24 24 24 23 23 22 22 22 21 21 20 20 20 20 21 21 21 21 21 22 22 22 23
34 34 35 35 35 35 35 35 35 34 34 34 34 33 31 30 29 27 27 27 26 26 26 26 26 26 27 27 26 25 24 24 24 23 23 23 23 22 22 21 21 22 22 22 22 22 22 23 23 24 24 24
35 36 36 36 36 37 37 38 37 36 35 35 35 33 32 30 29 28 27 27 27 27 27 26 27 27 28 27 26 26 24 24 24 24 24 24 24 23 23 23 23 23 23 23 23 23 24 24 25 25 25 25
37 38 38 38 39 39 40 40 39 38 37 37 36 34 31 30 29 28 28 28 27 27 27 27 28 28 29 28 27 26 25 25 26 26 25 25 25 25 24 24 24 24 24 24 25 25 25 26 26 26 26 26
40 41 41 41 42 42 42 41 40 40 39 37 36 33 30 29 29 29 28 28 28 28 29 29 29 30 30 30 28 27 26 26 27 27 27 27 27 26 25 25 24 25 25 25 26 26 27 27 27 27 28 28
40 41 41 42 42 42 41 41 40 39 38 36 35 32 30 30 30 29 29 30 30 31 31 31 31 31 31 31 29 28 27 27 28 29 29 29 28 27 26 25 25 26 26 27 27 27 28 28 29 29 29 30
38 39 39 39 39 39 39 39 38 38 36 35 34 32 32 32 32 32 33 33 34 34 34 33 33 33 32 31 30 29 28 28 29 30 30 30 29 28 27 26 27 28 28 28 28 29 30 30 30 31 31 31
36 36 36 36 37 37 37 37 37 37 35 34 34 35 35 35 36 36 36 36 37 37 36 36 35 34 32 31 30 29 29 30 30 31 31 31 31 29 28 28 29 29 29 29 29 30 32 32 32 32 32 32
35 34 34 35 36 37 37 37 37 37 37 37 38 39 38 38 38 38 38 38 38 38 37 36 35 33 32 31 31 30 30 31 32 32 32 33 32 31 31 30 30 30 30 30 31 33 34 34 34 34 33 32
33 33 34 35 36 37 39 39 39 39 39 40 40 40 40 39 38 38 38 38 38 37 37 36 35 34 33 33 32 32 32 32 32 33 33 34 34 33 32 31 31 31 32 32 33 35 36 35 35 35 33 32
33 34 35 36 37 38 39 40 40 40 39 39 39 39 38 37 37 37 37 37 38 37 37 37 36 36 35 34 34 34 34 34 34 34 35 35 35 35 34 33 33 34 34 34 34 36 38 37 37 36 34 34
34 34 35 36 37 37 38 39 39 39 37 36 36 36 36 36 37 38 38 39 39 39 39 39 38 38 38 37 37 37 37 37 37 37 37 36 36 36 35 36 37 37 36 35 36 38 38 39 38 38 37 37
34 35 35 36 37 37 38 39 38 37 37 37 37 37 38 39 39 40 41 41 42 42 42 41 41 41 41 41 40 40 41 41 40 39 39 39 39 38 38 40 40 39 37 38 39 38 39 40 40 40 40 40
Wind_Direction
242 245 244 244 245 244 244 245 245 247 251 254 255 256 257 259 261 263 265 266 268 267 266 265 264 265 267 269 270 271 272 273 273 273 272 271 271 270 270 269 268 267 266 266 264 264 263 263 263 263 263 263
244 246 246 247 249 248 246 247 248 249 253 257 258 259 260 261 262 264 264 263 263 264 264 265 266 266 267 269 270 271 271 271 272 271 271 270 269 269 268 268 268 267 267 267 266 266 265 265 265 266 266 266
242 244 246 248 250 250 250 250 251 251 254 258 260 262 263 266 267 266 265 262 260 261 263 265 267 268 269 270 270 271 270 269 269 269 269 268 268 268 267 266 267 267 267 268 268 268 268 268 268 268 269 269
244 247 249 250 251 253 253 253 254 255 256 258 261 263 265 267 267 267 265 262 262 262 263 265 267 269 269 269 269 270 269 268 266 265 264 263 263 263 262 261 261 263 265 267 269 270 271 271 272 273 274 274
250 253 253 253 253 253 253 253 254 255 255 257 259 261 262 263 264 264 263 263 264 265 265 265 265 266 266 266 265 265 265 263 260 256 253 251 250 250 250 250 252 255 261 267 271 272 274 275 276 278 279 281
253 255 256 256 255 252 251 251 251 251 252 253 255 257 258 258 260 260 262 263 265 267 268 267 266 265 264 262 259 255 253 249 245 241 237 236 237 240 245 248 253 257 262 267 271 273 274 274 275 275 277 279
253 254 256 257 256 254 251 250 250 249 249 250 252 255 256 255 257 258 261 263 264 266 266 266 265 265 261 255 247 240 236 233 231 230 230 232 236 241 248 254 258 261 264 266 268 270 272 273 274 274 274 274
256 256 256 258 257 255 252 250 249 249 249 250 252 254 255 255 256 258 261 262 263 263 262 262 261 258 252 242 233 227 225 225 227 230 233 237 242 247 252 257 261 264 265 267 268 270 271 273 274 275 275 274
259 258 258 258 257 256 253 250 249 249 249 251 252 254 255 255 256 258 260 261 260 259 258 257 253 246 237 231 226 225 225 227 231 236 241 244 248 252 255 259 262 265 267 268 270 271 273 274 275 276 276 276
260 260 259 258 257 256 253 250 249 248 249 250 251 252 253 254 256 257 258 257 255 254 253 249 243 236 230 228 227 228 231 234 238 242 247 250 253 255 257 259 262 264 267 269 271 272 274 275 276 276 277 277
259 259 258 258 257 255 252 249 248 247 247 248 249 250 252 253 255 256 255 253 252 250 247 241 235 232 230 229 231 233 236 240 243 247 251 254 257 258 260 262 264 266 267 269 271 273 274 275 276 276 277 278
258 259 259 258 256 254 251 247 246 246 246 247 248 249 251 252 254 254 251 249 248 246 241 236 234 233 234 234 236 239 242 245 248 250 253 256 258 260 262 264 266 267 269 270 272 273 275 276 276 277 278 279
256 258 258 258 257 254 250 247 245 245 245 246 247 248 250 251 252 250 247 245 244 242 239 237 236 237 238 240 242 244 247 249 252 253 255 257 259 261 263 264 266 267 268 270 271 273 274 275 277 278 279 280
255 256 257 257 256 254 250 247 245 245 245 245 247 249 250 251 250 247 244 243 241 240 240 239 239 241 242 245 247 249 251 253 255 256 257 259 261 263 264 265 265 266 267 268 270 271 273 275 276 278 279 280
255 256 257 256 255 253 251 247 246 246 246 246 248 249 251 251 248 244 241 241 241 241 242 242 243 244 246 248 251 252 253 255 256 257 259 261 262 264 265 266 266 267 267 268 270 271 273 274 276 277 279 280
256 257 256 256 255 253 251 248 247 247 247 248 249 250 251 250 246 241 241 241 242 243 244 245 246 247 249 251 253 254 255 256 257 259 261 262 264 264 265 266 267 268 268 269 270 272 273 274 275 277 278 280
256 256 255 254 253 252 249 248 247 247 249 250 251 252 251 248 243 240 241 242 243 244 245 247 248 250 251 252 254 255 256 258 259 261 262 263 263 264 264 266 267 268 268 269 270 271 272 273 275 277 278 279
255 254 253 252 251 250 249 248 248 248 249 250 252 251 249 244 241 239 241 242 243 245 246 248 250 251 253 254 255 256 258 259 261 262 263 263 263 263 264 265 266 267 268 268 269 270 271 273 274 276 277 278
253 252 251 251 251 250 248 247 247 247 249 250 251 249 245 241 238 238 240 243 244 245 247 248 250 252 254 255 255 257 258 260 261 263 263 263 263 264 264 265 266 267 268 268 269 271 272 273 274 275 276 277
251 250 250 250 250 249 248 247 247 247 248 249 248 246 242 239 237 238 241 243 244 245 247 248 250 252 254 255 255 257 259 261 262 263 263 263 263 264 265 265 266 267 268 269 270 272 272 273 274 275 276 277
251 251 251 250 250 249 249 249 249 248 249 249 247 244 240 238 237 239 241 243 244 245 247 249 251 252 254 255 256 257 259 261 263 263 262 262 263 263 264 265 266 268 269 271 272 273 273 274 275 276 276 277
251 251 251 250 249 249 249 248 249 249 250 248 246 243 240 239 239 240 242 244 246 247 248 250 251 252 254 255 256 258 259 261 262 262 261 261 261 262 263 265 267 269 270 272 272 274 275 275 276 277 278 279
250 250 249 249 248 248 248 248 249 250 250 248 245 244 242 240 240 242 244 246 247 248 248 249 250 252 254 255 257 258 259 259 259 259 258 258 259 260 263 266 268 269 270 271 273 275 276 276 277 279 279 279
252 252 251 250 250 250 250 249 250 251 250 247 245 245 243 241 241 242 243 245 246 246 247 247 248 250 252 254 256 258 257 257 256 256 256 257 258 261 264 266 267 268 269 270 273 274 275 276 277 278 278 278
258 258 257 256 256 256 254 252 251 251 250 247 245 244 243 241 240 241 242 242 243 244 244 245 246 248 251 254 256 256 256 255 254 255 256 257 259 261 263 264 265 266 268 270 272 273 273 274 275 276 276 277
262 262 261 260 259 256 254 252 251 251 249 246 243 241 239 239 239 240 241 242 243 244 245 246 247 250 252 255 256 256 255 254 254 254 256 257 258 260 261 261 263 265 267 269 270 271 271 272 272 273 274 275
263 263 262 259 257 253 251 250 249 247 246 242 240 239 238 239 239 241 243 244 245 247 248 250 251 253 254 255 256 255 254 253 252 253 255 256 258 258 259 260 262 264 266 267 268 268 269 270 270 271 273 275
262 260 258 255 253 251 249 248 247 245 244 242 241 240 240 241 242 243 245 246 248 250 251 253 253 254 254 254 254 254 253 252 252 253 254 255 257 258 259 260 261 263 263 265 266 267 268 269 270 271 273 273
258 256 254 253 252 250 250 250 249 248 247 246 246 245 245 245 245 246 247 247 249 250 250 251 251 251 251 252 252 251 251 251 251 251 253 254 256 258 259 260 260 261 262 264 265 266 268 270 271 272 273 272
254 253 252 252 251 251 252 252 253 253 253 253 252 251 250 248 247 246 246 246 246 246 247 247 248 248 248 248 248 249 249 250 250 251 252 253 255 257 258 258 259 259 261 262 263 265 268 270 271 272 272 272
252 252 251 251 252 252 253 253 254 254 254 253 252 250 249 247 246 245 245 245 245 245 246 246 247 247 247 247 248 248 249 250 250 251 252 253 254 255 256 257 259 259 260 261 263 265 267 269 270 270 271 271
Height
3127 3128 3128 3128 3129 3129 3129 3129 3130 3130 3130 3131 3132 3132 3133 3133 3134 3134 3135 3135 3135 3136 3136 3137 3138 3138 3138 3138 3139 3139 3139 3140 3140 3141 3141 3141 3141 3142 3142 3143 3143 3144 3144 3145 3145 3146 3146 3146 3147 3147 3147 3148
3125 3126 3126 3126 3127 3128 3128 3128 3128 3129 3129 3129 3130 3130 3131 3131 3132 3132 3133 3134 3134 3134 3134 3135 3135 3136 3137 3137 3137 3137 3138 3138 3138 3139 3139 3139 3139 3140 3140 3141 3141 3141 3142 3142 3143 3144 3144 3144 3145 3145 3145 3145
3123 3124 3124 3125 3125 3126 3126 3127 3127 3127 3127 3127 3128 3128 3128 3128 3129 3130 3131 3132 3132 3132 3133 3133 3133 3134 3135 3135 3135 3135 3135 3136 3136 3136 3137 3137 3137 3138 3138 3139 3139 3139 3140 3141 3141 3142 3142 3143 3143 3143 3143 3144
3121 3122 3122 3123 3123 3124 3125 3125 3125 3125 3125 3125 3125 3125 3126 3126 3126 3127 3128 3129 3130 3130 3131 3131 3131 3132 3132 3133 3133 3133 3133 3134 3134 3134 3135 3135 3135 3136 3137 3137 3138 3138 3138 3139 3139 3140 3141 3141 3142 3142 3142 3142
3119 3120 3120 3121 3122 3122 3123 3123 3123 3123 3123 3123 3124 3124 3124 3124 3125 3125 3126 3127 3127 3128 3128 3129 3129 3130 3130 3130 3131 3131 3131 3131 3132 3132 3133 3133 3134 3134 3135 3136 3136 3137 3137 3138 3138 3139 3139 3140 3140 3141 3141 3141
3117 3118 3118 3119 3119 3120 3120 3121 3121 3121 3121 3122 3122 3122 3122 3123 3123 3123 3124 3125 3125 3125 3126 3126 3126 3127 3128 3128 3129 3129 3129 3130 3130 3131 3131 3132 3132 3133 3133 3134 3135 3135 3136 3137 3137 3137 3138 3138 3139 3139 3140 3140
3115 3116 3116 3116 3117 3117 3118 3118 3119 3119 3119 3119 3119 3120 3120 3120 3121 3121 3122 3122 3123 3123 3123 3124 3124 3125 3126 3126 3127 3127 3128 3128 3129 3129 3130 3130 3131 3132 3132 3133 3133 3134 3135 3135 3135 3136 3136 3137 3137 3138 3138 3139
3112 3113 3113 3114 3114 3115 3115 3116 3116 3116 3116 3117 3117 3117 3118 3118 3119 3119 3120 3120 3120 3121 3121 3122 3122 3123 3124 3124 3125 3126 3126 3127 3127 3128 3128 3129 3129 3130 3130 3131 3131 3132 3132 3133 3133 3134 3134 3135 3135 3135 3136 3136
3109 3110 3111 3111 3111 3112 3113 3113 3113 3113 3114 3114 3114 3114 3115 3116 3116 3117 3117 3118 3118 3118 3119 3119 3120 3121 3122 3122 3123 3124 3124 3125 3125 3126 3126 3127 3128 3128 3129 3129 3129 3130 3130 3131 3131 3132 3132 3132 3133 3133 3133 3134
3107 3107 3108 3108 3109 3109 3110 3110 3111 3111 3111 3111 3112 3112 3113 3114 3114 3115 3115 3115 3116 3116 3117 3117 3118 3119 3119 3120 3121 3122 3122 3123 3123 3124 3124 3125 3126 3126 3127 3127 3127 3128 3128 3128 3129 3129 3130 3130 3130 3131 3131 3131
3104 3105 3105 3106 3106 3107 3107 3108 3108 3108 3108 3109 3109 3110 3111 3111 3112 3112 3112 3113 3113 3114 3114 3115 3116 3116 3117 3118 3119 3119 3120 3121 3121 3122 3122 3123 3123 3124 3124 3125 3125 3125 3126 3126 3126 3127 3127 3127 3128 3128 3128 3129
3102 3102 3103 3103 3104 3104 3105 3105 3106 3106 3106 3106 3107 3107 3108 3109 3109 3110 3110 3110 3111 3111 3112 3112 3113 3114 3115 3116 3116 3117 3118 3118 3119 3120 3120 3120 3121 3121 3122 3122 3123 3123 3123 3123 3124 3124 3124 3125 3125 3125 3126 3126
3099 3099 3100 3100 3101 3102 3102 3102 3103 3102 3103 3104 3104 3105 3105 3106 3106 3107 3107 3107 3108 3109 3109 3110 3111 3111 3112 3113 3114 3115 3115 3116 3116 3117 3118 3118 3119 3119 3119 3120 3120 3121 3121 3121 3121 3122 3122 3122 3123 3123 3123 3123
3096 3096 3097 3098 3098 3099 3099 3100 3099 3099 3100 3101 3101 3102 3102 3103 3103 3104 3104 3105 3105 3106 3106 3107 3108 3109 3110 3111 3111 3112 3113 3113 3114 3114 3115 3116 3116 3116 3117 3117 3118 3118 3118 3119 3119 3119 3120 3120 3120 3121 3121 3121
3092 3093 3094 3095 3095 3095 3096 3096 3096 3096 3097 3098 3098 3099 3099 3099 3100 3100 3101 3101 3102 3103 3104 3104 3105 3106 3107 3108 3108 3109 3110 3111 3111 3112 3112 3113 3113 3114 3114 3114 3115 3115 3116 3116 3116 3117 3117 3118 3118 3118 3119 3119
3089 3090 3090 3091 3091 3091 3092 3092 3092 3093 3093 3094 3095 3095 3095 3096 3096 3097 3098 3098 3099 3100 3101 3102 3102 3103 3104 3105 3105 3106 3107 3108 3108 3109 3109 3110 3110 3111 3111 3111 3112 3112 3113 3113 3114 3114 3115 3115 3115 3116 3116 3116
3085 3086 3086 3087 3087 3088 3088 3088 3089 3089 3090 3090 3091 3091 3092 3092 3093 3094 3094 3095 3096 3097 3098 3099 3100 3100 3101 3102 3102 3103 3104 3104 3105 3106 3106 3107 3107 3108 3108 3108 3109 3109 3110 3111 3111 3112 3112 3112 3113 3113 3114 3114
3081 3082 3082 3083 3083 3084 3084 3085 3085 3086 3086 3087 3087 3088 3088 3089 3090 3091 3091 3092 3093 3094 3095 3096 3097 3097 3098 3098 3099 3100 3100 3101 3102 3102 3103 3104 3104 3104 3105 3105 3106 3106 3107 3108 3108 3109 3109 3110 3110 3111 3111 3111
3078 3078 3078 3079 3079 3080 3081 3081 3082 3082 3083 3083 3084 3084 3085 3086 3087 3087 3088 3089 3090 3091 3092 3093 3094 3094 3094 3095 3096 3097 3097 3098 3099 3099 3100 3100 3101 3101 3102 3102 3103 3103 3104 3104 3105 3106 3106 3107 3107 3108 3108 3108
3073 3074 3074 3075 3075 3076 3076 3077 3078 3079 3079 3080 3080 3080 3081 3082 3083 3085 3086 3086 3087 3088 3089 3090 3091 3091 3091 3092 3093 3094 3094 3095 3095 3096 3096 3097 3097 3098 3098 3099 3099 3100 3100 3101 3102 3102 3103 3103 3104 3104 3105 3105
3069 3069 3070 3070 3071 3072 3072 3072 3073 3075 3075 3075 3076 3077 3078 3079 3080 3082 3083 3083 3084 3085 3086 3087 3087 3087 3088 3088 3089 3090 3091 3091 3092 3093 3093 3093 3094 3094 3095 3095 3096 3096 3097 3097 3098 3099 3099 3100 3100 3101 3101 3102
3065 3065 3065 3066 3066 3067 3067 3068 3069 3070 3071 3071 3072 3074 3075 3077 3078 3078 3079 3080 3081 3082 3082 3083 3083 3084 3084 3085 3086 3087 3088 3088 3089 3089 3090 3090 3090 3091 3091 3092 3092 3093 3093 3094 3094 3095 3095 3096 3096 3097 3097 3098
3060 3060 3060 3061 3061 3062 3062 3064 3065 3066 3067 3068 3069 3071 3073 3074 3074 3075 3076 3077 3077 3078 3078 3079 3079 3080 3080 3081 3082 3083 3084 3085 3085 3085 3086 3086 3086 3087 3087 3088 3088 3089 3089 3090 3090 3090 3091 3091 3092 3092 3093 3093
3055 3055 3055 3056 3056 3057 3058 3060 3061 3062 3063 3065 3066 3068 3069 3069 3070 3071 3072 3072 3073 3073 3074 3075 3075 3076 3076 3077 3078 3080 3081 3081 3081 3081 3081 3082 3082 3083 3084 3084 3084 3085 3085 3085 3086 3086 3086 3087 3087 3088 3088 3089
3051 3051 3051 3052 3053 3054 3055 3057 3058 3059 3060 3062 3063 3064 3064 3065 3066 3066 3067 3068 3068 3068 3069 3070 3071 3072 3073 3074 3075 3076 3077 3077 3077 3077 3077 3078 3079 3079 3080 3080 3080 3081 3081 3082 3082 3082 3082 3083 3083 3084 3084 3085
3047 3047 3048 3049 3050 3051 3052 3053 3054 3055 3057 3058 3059 3059 3059 3060 3061 3061 3062 3063 3063 3064 3065 3066 3067 3068 3070 3070 3071 3072 3072 3072 3073 3073 3073 3074 3075 3075 3076 3076 3076 3076 3077 3078 3078 3078 3078 3078 3079 3080 3080 3081
3043 3044 3045 3045 3046 3047 3048 3048 3049 3050 3051 3052 3052 3053 3054 3055 3056 3057 3058 3059 3060 3061 3062 3063 3064 3065 3066 3066 3067 3067 3068 3068 3068 3069 3069 3070 3070 3071 3071 3072 3072 3072 3073 3073 3073 3073 3073 3074 3075 3075 3076 3077
3040 3041 3041 3041 3041 3042 3042 3042 3043 3044 3045 3046 3047 3049 3050 3052 3053 3054 3055 3056 3057 3057 3059 3060 3060 3061 3061 3062 3062 3063 3063 3064 3064 3065 3065 3065 3065 3066 3067 3067 3068 3068 3068 3068 3069 3068 3068 3069 3070 3071 3073 3073
3035 3036 3035 3036 3036 3036 3036 3037 3038 3039 3040 3042 3044 3046 3048 3049 3050 3051 3051 3052 3053 3053 3054 3055 3056 3056 3056 3057 3057 3058 3058 3059 3059 3060 3060 3060 3061 3061 3062 3063 3063 3063 3063 3064 3064 3063 3063 3064 3065 3066 3068 3067
3030 3030 3030 3031 3031 3031 3032 3032 3033 3035 3037 3040 3041 3043 3045 3046 3046 3046 3046 3047 3047 3048 3048 3049 3050 3050 3051 3051 3052 3052 3053 3053 3054 3054 3055 3056 3056 3056 3057 3057 3057 3058 3059 3059 3059 3059 3059 3059 3060 3061 3062 3061
3025 3025 3026 3026 3027 3027 3028 3028 3030 3032 3034 3036 3037 3038 3039 3039 3040 3040 3041 3041 3042 3042 3043 3044 3044 3045 3045 3046 3046 3047 3047 3048 3049 3050 3050 3050 3050 3051 3052 3051 3052 3053 3054 3054 3054 3055 3055 3054 3055 3055 3056 3056